Latest Weather Observations for Cabramurra

IDN60801

Issued at 2:33 pm EST Tuesday 26 July 2016 (issued every 30 minutes, with the page automatically refreshed every 10 minutes)

About weather observations | Map of weather stations | Latest weather observations for NSW | Other Formats
Station Details ID: 072161 Name: CABRAMURRA SMHEA AWS Lat: -35.94 Lon: 148.38 Height: 1482.4 m
Data from the previous 72 hours. | See also: Recent months at Cabramurra
Date/Time
EST
Temp
°C
App
Temp
°C
Dew
Point
°C
Rel
Hum
%
Delta-T
°C
Wind Press
QNH
hPa
Press
MSL
hPa
Rain since
9am
mm
Dir  Spd
km/h
Gust
km/h
Spd
kts
Gust
kts
26/02:30pm -1.5 -8.3 -1.5 100 0.0 WNW 24 32 13 17 - - 0.0
26/02:00pm -1.6 -9.5 -1.6 100 0.0 WNW 30 41 16 22 - - 0.0
26/01:30pm -1.6 -8.7 -1.6 100 0.0 NW 26 43 14 23 - - 0.0
26/01:00pm -1.6 -8.4 -1.7 99 0.0 NW 24 35 13 19 - - 0.0
26/12:30pm -1.9 -9.9 -2.0 99 -0.1 NW 30 39 16 21 - - 0.0
26/12:00pm -1.8 -8.2 -1.9 99 -0.1 NW 22 30 12 16 - - 0.0
26/11:30am -2.0 -8.5 -2.1 99 -0.1 NW 22 32 12 17 - - 0.0
26/11:00am -2.4 -9.7 -2.5 99 -0.1 NW 26 39 14 21 - - 0.0
26/10:30am -2.6 -9.5 -2.7 99 -0.1 NW 24 35 13 19 - - 0.0
26/10:00am -2.7 -9.6 -2.8 99 -0.1 NW 24 37 13 20 - - 0.0
26/09:30am -2.8 -9.7 -2.9 99 -0.1 NW 24 30 13 16 - - 0.0
26/09:00am -2.9 -9.8 -3.0 99 -0.1 NW 24 32 13 17 - - 8.4
26/08:30am -3.2 -10.6 -3.3 99 -0.1 NW 26 35 14 19 - - 8.4
26/08:00am -3.2 -10.2 -3.3 99 -0.1 NW 24 33 13 18 - - 8.4
26/07:30am -3.2 -10.9 -3.3 99 -0.1 NW 28 37 15 20 - - 8.4
26/07:00am -3.2 -10.6 -3.3 99 -0.1 NW 26 41 14 22 - - 8.4
26/06:30am -2.9 -11.4 -3.0 99 -0.1 NW 32 44 17 24 - - 8.4
26/06:00am -2.8 -10.5 -2.9 99 -0.1 NW 28 41 15 22 - - 8.4
26/05:30am -2.9 -10.6 -3.0 99 -0.1 NW 28 41 15 22 - - 8.4
26/05:02am -2.8 -10.9 -2.9 99 -0.1 NW 30 50 16 27 - - 8.4
26/05:00am -2.7 -10.4 -2.8 99 -0.1 NW 28 41 15 22 - - 8.4
26/04:50am -2.6 -10.3 -2.7 99 -0.1 NW 28 46 15 25 - - 8.4
26/04:30am -2.6 -10.6 -2.7 99 -0.1 NW 30 43 16 23 - - 8.4
26/04:00am -2.2 -10.2 -2.2 100 0.0 NW 30 41 16 22 - - 8.4
26/03:46am -2.2 -11.1 -2.2 100 0.0 NW 35 59 19 32 - - 8.4
26/03:30am -1.9 -10.2 -1.9 100 0.0 NW 32 48 17 26 - - 8.4
26/03:00am -0.8 -10.3 -0.8 100 0.0 NW 39 59 21 32 - - 8.2
26/02:48am -0.6 -8.7 -0.6 100 0.0 NW 32 54 17 29 - - 7.8
26/02:30am -0.5 -9.2 -0.5 100 0.0 NW 35 48 19 26 - - 7.4
26/02:09am -0.5 -8.6 -0.5 100 0.0 NW 32 52 17 28 - - 7.0
26/02:00am -0.5 -8.8 -0.5 100 0.0 NW 33 46 18 25 - - 6.8
26/01:32am -0.4 -8.7 -0.4 100 0.0 NW 33 52 18 28 - - 6.4
26/01:30am -0.4 -8.5 -0.4 100 0.0 NW 32 48 17 26 - - 6.4
26/01:00am -0.5 -8.8 -0.5 100 0.0 NW 33 56 18 30 - - 5.8
26/12:54am -0.5 -8.8 -0.5 100 0.0 NW 33 52 18 28 - - 5.8
26/12:30am -0.4 -7.8 -0.4 100 0.0 NW 28 43 15 23 - - 5.6
26/12:00am -0.4 -7.8 -0.4 100 0.0 NW 28 50 15 27 - - 5.2
 
Date/Time
EST
Temp
°C
App
Temp
°C
Dew
Point
°C
Rel
Hum
%
Delta-T
°C
Wind Press
QNH
hPa
Press
MSL
hPa
Rain since
9am
mm
Dir  Spd
km/h
Gust
km/h
Spd
kts
Gust
kts
25/11:54pm -0.4 -7.8 -0.4 100 0.0 NW 28 50 15 27 - - 5.2
25/11:30pm -0.5 -6.7 -0.5 100 0.0 NW 22 33 12 18 - - 4.8
25/11:00pm -0.6 -6.5 -0.6 100 0.0 NW 20 28 11 15 - - 4.6
25/10:30pm -0.7 -6.4 -0.7 100 0.0 NW 19 26 10 14 - - 3.8
25/10:00pm -0.8 -8.2 -0.8 100 0.0 NW 28 39 15 21 - - 2.8
25/09:30pm -0.9 -7.6 -0.9 100 0.0 NW 24 35 13 19 - - 2.8
25/09:09pm -0.8 -8.6 -0.8 100 0.0 NW 30 48 16 26 - - 2.8
25/09:00pm -0.8 -9.2 -0.8 100 0.0 NW 33 46 18 25 - - 2.8
25/08:37pm -1.0 -9.2 -1.0 100 0.0 NW 32 50 17 27 - - 2.6
25/08:30pm -1.0 -8.4 -1.0 100 0.0 NW 28 50 15 27 - - 2.6
25/08:29pm -0.9 -8.3 -0.9 100 0.0 NNW 28 50 15 27 - - 2.4
25/08:00pm -0.9 -7.6 -0.9 100 0.0 NNW 24 37 13 20 - - 2.0
25/07:30pm -0.9 -6.8 -0.9 100 0.0 NNW 20 33 11 18 - - 1.4
25/07:00pm -0.7 -7.7 -0.7 100 0.0 NW 26 37 14 20 - - 1.4
25/06:30pm 0.0 -8.1 0.0 100 0.0 WNW 32 50 17 27 - - 1.2
25/06:13pm 0.0 -7.7 0.0 100 0.0 NW 30 48 16 26 - - 1.0
25/06:00pm 0.0 -8.1 0.0 100 0.0 NW 32 44 17 24 - - 1.0
25/05:30pm 0.0 -7.7 0.0 100 0.0 WNW 30 41 16 22 - - 0.8
25/05:22pm 0.0 -7.3 0.0 100 0.0 NW 28 41 15 22 - - 0.8
25/05:00pm 0.0 -4.8 0.0 100 0.0 WNW 15 17 8 9 - - 0.8
25/04:30pm 0.0 -4.8 0.0 100 0.0 WNW 15 17 8 9 - - 0.4
25/04:00pm -0.1 -4.9 -0.1 100 0.0 NW 15 17 8 9 - - 0.2
25/03:30pm -0.1 -5.3 -0.1 100 0.0 NW 17 28 9 15 - - 0.2
25/03:00pm -0.1 -5.7 -0.1 100 0.0 NW 19 26 10 14 - - 0.0
25/02:30pm -0.2 -6.0 -0.2 100 0.0 NW 20 28 11 15 - - 0.0
25/02:00pm -0.4 -6.6 -0.4 100 0.0 NW 22 30 12 16 - - 0.0
25/01:30pm -0.5 -6.2 -0.5 100 0.0 NW 19 26 10 14 - - 0.0
25/01:00pm -0.8 -6.5 -0.8 100 0.0 NW 19 26 10 14 - - 0.0
25/12:30pm -0.8 -6.5 -0.8 100 0.0 NW 19 24 10 13 - - 0.0
25/12:00pm -0.8 -6.7 -0.8 100 0.0 NW 20 28 11 15 - - 0.0
25/11:30am -0.8 -6.5 -0.8 100 0.0 NW 19 28 10 15 - - 0.0
25/11:00am -0.7 -5.6 -0.7 100 0.0 NW 15 20 8 11 - - 0.0
25/10:30am -1.0 -6.9 -1.0 100 0.0 NW 20 26 11 14 - - 0.0
25/10:00am -0.9 -6.6 -0.9 100 0.0 NW 19 26 10 14 - - 0.0
25/09:30am -1.0 -6.4 -1.0 100 0.0 NW 17 24 9 13 - - 0.0
25/09:00am -1.2 -7.5 -1.2 100 0.0 NW 22 30 12 16 - - 0.0
25/08:30am -1.4 -7.8 -1.4 100 0.0 NW 22 32 12 17 - - 0.0
25/08:00am -1.4 -7.4 -1.4 100 0.0 NW 20 26 11 14 - - 0.0
25/07:30am -1.8 -7.3 -1.9 99 -0.1 NW 17 24 9 13 - - 0.0
25/07:00am -2.2 -7.7 -2.3 99 -0.1 NW 17 20 9 11 - - 0.0
25/06:30am -2.4 -7.2 -2.5 99 -0.1 NW 13 19 7 10 - - 0.0
25/06:00am -2.4 -7.6 -2.5 99 -0.1 NW 15 20 8 11 - - 0.0
25/05:30am -2.3 -7.1 -2.4 99 -0.1 NW 13 19 7 10 - - 0.0
25/05:00am -2.4 -7.6 -2.5 99 -0.1 NW 15 20 8 11 - - 0.0
25/04:30am -2.5 -8.1 -2.6 99 -0.1 NW 17 20 9 11 - - 0.0
25/04:00am -2.3 -7.8 -2.4 99 -0.1 NW 17 26 9 14 - - 0.0
25/03:30am -2.2 -7.7 -2.3 99 -0.1 NW 17 24 9 13 - - 0.0
25/03:00am -2.1 -8.2 -2.2 99 -0.1 NW 20 28 11 15 - - 0.0
25/02:30am -2.0 -7.9 -2.1 99 -0.1 NW 19 28 10 15 - - 0.0
25/02:00am -2.0 -8.5 -2.1 99 -0.1 NW 22 30 12 16 - - 0.0
25/01:30am -2.0 -8.1 -2.1 99 -0.1 NW 20 30 11 16 - - 0.0
25/01:00am -1.7 -8.9 -1.7 100 0.0 NW 26 39 14 21 - - 0.0
25/12:30am -1.6 -8.0 -1.6 100 0.0 NW 22 32 12 17 - - 0.0
25/12:00am -1.7 -7.5 -1.7 100 0.0 NW 19 24 10 13 - - 0.0
 
Date/Time
EST
Temp
°C
App
Temp
°C
Dew
Point
°C
Rel
Hum
%
Delta-T
°C
Wind Press
QNH
hPa
Press
MSL
hPa
Rain since
9am
mm
Dir  Spd
km/h
Gust
km/h
Spd
kts
Gust
kts
24/11:30pm -1.5 -6.5 -1.5 100 0.0 NW 15 19 8 10 - - 0.0
24/11:00pm -1.3 -6.7 -1.3 100 0.0 NW 17 26 9 14 - - 0.0
24/10:30pm -1.0 -6.0 -1.0 100 0.0 NW 15 20 8 11 - - 0.0
24/10:00pm -1.1 -6.5 -1.1 100 0.0 NW 17 24 9 13 - - 0.0
24/09:30pm -1.3 -6.7 -1.3 100 0.0 NW 17 22 9 12 - - 0.0
24/09:00pm -1.3 -7.1 -1.4 99 0.0 NW 19 30 10 16 - - 0.0
24/08:30pm -1.9 -7.4 -2.0 99 -0.1 NW 17 24 9 13 - - 0.0
24/08:00pm -1.7 -8.1 -1.8 99 0.0 NW 22 30 12 16 - - 0.0
24/07:30pm -1.8 -6.9 -1.9 99 -0.1 NW 15 20 8 11 - - 0.0
24/07:00pm -1.6 -7.4 -1.7 99 0.0 NW 19 24 10 13 - - 0.0
24/06:30pm -2.0 -7.1 -2.1 99 -0.1 NW 15 22 8 12 - - 0.0
24/06:00pm -2.2 -7.3 -2.3 99 -0.1 NW 15 19 8 10 - - 0.0
24/05:30pm -2.4 -7.6 -2.5 99 -0.1 NW 15 19 8 10 - - 0.0
24/05:00pm -2.4 -7.6 -2.5 99 -0.1 NW 15 20 8 11 - - 0.0
24/04:30pm -2.2 -7.0 -2.3 99 -0.1 NW 13 17 7 9 - - 0.0
24/04:00pm -2.3 -7.5 -2.4 99 -0.1 NW 15 19 8 10 - - 0.0
24/03:30pm -2.4 -8.5 -2.5 99 -0.1 NW 20 28 11 15 - - 0.0
24/03:00pm -2.3 -8.2 -2.4 99 -0.1 NW 19 22 10 12 - - 0.0
24/02:30pm -2.1 -7.2 -2.2 99 -0.1 NW 15 19 8 10 - - 0.0
24/02:00pm -2.1 -7.2 -2.2 99 -0.1 NW 15 19 8 10 - - 0.0
24/01:30pm -2.5 -7.7 -2.6 99 -0.1 NW 15 19 8 10 - - 0.0
24/01:00pm -2.7 -8.3 -2.8 99 -0.1 NW 17 24 9 13 - - 0.0
24/12:30pm -2.7 -9.2 -2.8 99 -0.1 NW 22 33 12 18 - - 0.0
24/12:00pm -2.7 -8.9 -2.8 99 -0.1 NW 20 28 11 15 - - 0.0
24/11:30am -2.7 -8.9 -2.8 99 -0.1 NW 20 30 11 16 - - 0.0
24/11:00am -2.6 -8.2 -2.7 99 -0.1 NW 17 28 9 15 - - 0.0
24/10:30am -2.9 -8.5 -3.0 99 -0.1 NW 17 24 9 13 - - 0.0
24/10:00am -3.2 -8.5 -3.3 99 -0.1 NW 15 24 8 13 - - 0.0
24/09:30am -3.2 -8.5 -3.3 99 -0.1 NW 15 22 8 12 - - 0.0
24/09:00am -3.3 -8.6 -3.4 99 -0.1 NW 15 24 8 13 - - 1.2
24/08:30am -3.5 -8.8 -3.6 99 -0.1 NW 15 20 8 11 - - 1.2
24/08:00am -3.7 -8.6 -3.8 99 -0.1 NW 13 19 7 10 - - 1.2
24/07:30am -3.8 -8.4 -3.9 99 -0.1 NW 11 17 6 9 - - 1.2
24/07:00am -4.1 -8.3 -4.2 99 -0.1 NW 9 13 5 7 - - 1.2
24/06:30am -4.0 -8.2 -4.1 99 -0.1 NW 9 17 5 9 - - 1.2
24/06:00am -3.9 -8.9 -4.0 99 -0.1 NW 13 20 7 11 - - 1.2
24/05:30am -3.8 -8.8 -3.9 99 -0.1 NW 13 20 7 11 - - 1.2
24/05:00am -3.7 -9.0 -3.8 99 -0.1 NW 15 24 8 13 - - 1.2
24/04:30am -3.7 -8.6 -3.8 99 -0.1 NW 13 19 7 10 - - 1.2
24/04:00am -3.6 -9.3 -3.7 99 -0.1 NW 17 30 9 16 - - 1.2
24/03:30am -3.5 -8.8 -3.6 99 -0.1 NW 15 24 8 13 - - 1.2
24/03:00am -3.5 -8.8 -3.6 99 -0.1 NW 15 26 8 14 - - 1.2
24/02:30am -3.4 -9.5 -3.5 99 -0.1 NW 19 28 10 15 - - 1.2
24/02:00am -3.4 -9.6 -3.5 99 -0.1 NW 20 28 11 15 - - 1.2
24/01:30am -3.3 -9.5 -3.4 99 -0.1 NW 20 30 11 16 - - 1.2
24/01:00am -3.2 -10.2 -3.3 99 -0.1 NW 24 32 13 17 - - 1.2
24/12:30am -3.1 -10.4 -3.2 99 -0.1 NW 26 39 14 21 - - 1.2
24/12:00am -3.0 -10.3 -3.1 99 -0.1 NW 26 39 14 21 - - 1.2
 
Date/Time
EST
Temp
°C
App
Temp
°C
Dew
Point
°C
Rel
Hum
%
Delta-T
°C
Wind Press
QNH
hPa
Press
MSL
hPa
Rain since
9am
mm
Dir  Spd
km/h
Gust
km/h
Spd
kts
Gust
kts
23/11:30pm -3.0 -10.3 -3.1 99 -0.1 NW 26 41 14 22 - - 1.2
23/11:00pm -2.9 -10.2 -3.0 99 -0.1 NW 26 37 14 20 - - 1.2
23/10:35pm -2.9 -10.6 -3.0 99 -0.1 NW 28 46 15 25 - - 1.2
23/10:30pm -2.9 -11.4 -3.0 99 -0.1 NW 32 46 17 25 - - 1.2
23/10:15pm -2.9 -10.6 -3.0 99 -0.1 NW 28 46 15 25 - - 1.2
23/10:00pm -2.8 -11.3 -2.9 99 -0.1 NW 32 46 17 25 - - 1.2
23/09:30pm -3.0 -10.3 -3.1 99 -0.1 NW 26 39 14 21 - - 1.2
23/09:00pm -2.9 -10.6 -3.0 99 -0.1 NW 28 43 15 23 - - 1.2
23/08:30pm -3.0 -11.1 -3.1 99 -0.1 NW 30 44 16 24 - - 1.2
23/08:00pm -2.9 -10.6 -3.0 99 -0.1 NW 28 39 15 21 - - 1.2
23/07:30pm -3.4 -10.8 -3.5 99 -0.1 NW 26 41 14 22 - - 1.2
23/07:03pm -3.5 -11.7 -3.6 99 -0.1 NW 30 50 16 27 - - 1.2
23/07:00pm -3.1 -10.8 -3.2 99 -0.1 NW 28 39 15 21 - - 1.2
23/06:30pm -3.2 -11.3 -3.3 99 -0.1 NW 30 43 16 23 - - 1.2
23/06:00pm -3.0 -12.0 -3.1 99 -0.1 NW 35 48 19 26 - - 1.2
23/05:37pm -3.0 -11.7 -3.1 99 -0.1 NW 33 52 18 28 - - 1.2
23/05:30pm -3.0 -12.4 -3.1 99 -0.1 NW 37 52 20 28 - - 1.2
23/05:10pm -2.9 -11.4 -3.0 99 -0.1 NW 32 50 17 27 - - 1.2
23/05:00pm -3.0 -11.5 -3.1 99 -0.1 NW 32 44 17 24 - - 1.2
23/04:30pm -3.2 -11.9 -3.3 99 -0.1 NW 33 48 18 26 - - 1.2
23/04:24pm -2.9 -11.0 -3.0 99 -0.1 NW 30 48 16 26 - - 1.2
23/04:00pm -2.9 -9.8 -3.0 99 -0.1 NW 24 33 13 18 - - 1.2
23/03:30pm -2.7 -10.4 -2.8 99 -0.1 NW 28 43 15 23 - - 1.2
23/03:00pm -3.0 -11.5 -3.1 99 -0.1 NW 32 43 17 23 - - 1.2

Other Formats:

Comma delimited format used in spreadsheet applications
http://www.bom.gov.au/fwo/IDN60801/IDN60801.95916.axf

JavaScript Object Notation format (JSON) in row-major order
http://www.bom.gov.au/fwo/IDN60801/IDN60801.95916.json